When you browse on this site, cookies collect data to enhance your experience and personalize the content and advertising you see.
Visit our Privacy Policy to learn more. By continuing to use the site, you agree to this use of cookies and data.
  • In Latvia
  • List of Countries
  • For 7 days
  • Water Temperature
  • Weather Map
  • Weather Widgets
  • user-avatar
    Login

    Hourly Weather Michalowka

    Today, 20 August, Tuesday

    Time Temperature Precipitation Wind Pressure Humidity
    00:00 +21°C° 0 mm 2 mps 747 mmHg 75%
    01:00 +20°C° 0 mm 2 mps 747 mmHg 78%
    02:00 +21°C° 0 mm 1 mps 748 mmHg 77%
    03:00 +20°C° 0 mm 1 mps 748 mmHg 82%
    04:00 +20°C° 0 mm 1 mps 748 mmHg 87%
    05:00 +20°C° 0 mm 1 mps 748 mmHg 91%
    06:00 +20°C° 0 mm 2 mps 748 mmHg 90%
    07:00 +21°C° 0 mm 2 mps 749 mmHg 88%
    08:00 +23°C° 0 mm 2 mps 749 mmHg 88%
    09:00 +24°C° 0 mm 2 mps 749 mmHg 82%
    10:00 +26°C° 0 mm 2 mps 749 mmHg 77%
    11:00 +27°C° 0 mm 2 mps 749 mmHg 71%
    12:00 +28°C° 0.1 mm 2 mps 749 mmHg 69%
    13:00 +29°C° 0.1 mm 2 mps 749 mmHg 66%
    14:00 +29°C° 0.1 mm 2 mps 749 mmHg 64%
    15:00 +29°C° 0.1 mm 2 mps 749 mmHg 65%
    16:00 +29°C° 0.1 mm 2 mps 749 mmHg 67%
    17:00 +29°C° 0.1 mm 3 mps 748 mmHg 69%
    18:00 +28°C° 0.2 mm 3 mps 748 mmHg 76%
    19:00 +26°C° 0.2 mm 2 mps 748 mmHg 83%
    20:00 +24°C° 0.2 mm 2 mps 748 mmHg 90%
    21:00 +24°C° 0.2 mm 2 mps 748 mmHg 90%
    22:00 +23°C° 0.2 mm 2 mps 748 mmHg 91%
    23:00 +23°C° 0.2 mm 2 mps 748 mmHg 92%

    Tomorrow, 21 August, Wednesday

    Time Temperature Precipitation Wind Pressure Humidity
    00:00 +21°C° 0 mm 2 mps 748 mmHg 90%
    01:00 +21°C° 0 mm 2 mps 747 mmHg 89%
    02:00 +20°C° 0 mm 3 mps 747 mmHg 87%
    03:00 +20°C° 0 mm 3 mps 747 mmHg 86%
    04:00 +20°C° 0 mm 3 mps 747 mmHg 86%
    05:00 +20°C° 0 mm 3 mps 747 mmHg 85%
    06:00 +21°C° 0 mm 2 mps 747 mmHg 82%
    07:00 +24°C° 0 mm 2 mps 747 mmHg 79%
    08:00 +25°C° 0 mm 2 mps 748 mmHg 75%
    09:00 +26°C° 0 mm 3 mps 748 mmHg 75%
    10:00 +27°C° 0 mm 5 mps 749 mmHg 74%
    11:00 +27°C° 0 mm 6 mps 749 mmHg 73%
    12:00 +26°C° 0 mm 6 mps 749 mmHg 74%
    13:00 +26°C° 0 mm 6 mps 750 mmHg 75%
    14:00 +24°C° 0 mm 6 mps 750 mmHg 76%
    15:00 +23°C° 0 mm 6 mps 750 mmHg 76%
    16:00 +23°C° 0 mm 5 mps 751 mmHg 75%
    17:00 +22°C° 0 mm 5 mps 751 mmHg 74%
    18:00 +21°C° 0 mm 4 mps 751 mmHg 75%
    19:00 +20°C° 0 mm 4 mps 752 mmHg 76%
    20:00 +19°C° 0 mm 3 mps 752 mmHg 77%
    21:00 +19°C° 0 mm 3 mps 752 mmHg 77%
    22:00 +18°C° 0 mm 3 mps 753 mmHg 77%
    23:00 +17°C° 0 mm 3 mps 753 mmHg 78%

    Day after tomorrow, 22 August, Thursday

    Time Temperature Precipitation Wind Pressure Humidity
    00:00 +16°C° 0 mm 2 mps 753 mmHg 82%
    01:00 +16°C° 0 mm 2 mps 753 mmHg 86%
    02:00 +15°C° 0 mm 2 mps 753 mmHg 90%
    03:00 +14°C° 0 mm 2 mps 753 mmHg 91%
    04:00 +14°C° 0 mm 2 mps 753 mmHg 93%
    05:00 +13°C° 0 mm 2 mps 753 mmHg 94%
    06:00 +14°C° 0 mm 2 mps 753 mmHg 91%
    07:00 +14°C° 0 mm 3 mps 754 mmHg 88%
    08:00 +14°C° 0 mm 3 mps 754 mmHg 85%
    09:00 +17°C° 0 mm 3 mps 754 mmHg 81%
    10:00 +18°C° 0 mm 4 mps 754 mmHg 77%
    11:00 +19°C° 0 mm 4 mps 754 mmHg 73%
    12:00 +20°C° 0 mm 4 mps 753 mmHg 71%
    13:00 +20°C° 0 mm 4 mps 753 mmHg 69%
    14:00 +21°C° 0 mm 4 mps 753 mmHg 67%
    15:00 +21°C° 0 mm 4 mps 753 mmHg 67%
    16:00 +21°C° 0 mm 4 mps 753 mmHg 68%
    17:00 +21°C° 0 mm 4 mps 752 mmHg 69%
    18:00 +20°C° 0 mm 3 mps 752 mmHg 74%
    19:00 +19°C° 0 mm 2 mps 752 mmHg 79%
    20:00 +18°C° 0 mm 2 mps 752 mmHg 84%
    21:00 +17°C° 0 mm 2 mps 752 mmHg 86%
    22:00 +17°C° 0 mm 2 mps 753 mmHg 87%
    23:00 +16°C° 0 mm 2 mps 753 mmHg 89%

    23 August, Friday

    Time Temperature Precipitation Wind Pressure Humidity
    00:00 +16°C° 0 mm 2 mps 753 mmHg 88%
    01:00 +16°C° 0 mm 2 mps 752 mmHg 88%
    02:00 +16°C° 0 mm 3 mps 752 mmHg 88%
    03:00 +16°C° 0.1 mm 3 mps 752 mmHg 88%
    04:00 +14°C° 0.1 mm 3 mps 752 mmHg 89%
    05:00 +14°C° 0.1 mm 3 mps 752 mmHg 90%
    06:00 +16°C° 0.1 mm 3 mps 752 mmHg 87%
    07:00 +17°C° 0.1 mm 4 mps 753 mmHg 85%
    08:00 +18°C° 0.1 mm 4 mps 753 mmHg 83%
    09:00 +20°C° 0 mm 5 mps 753 mmHg 77%
    10:00 +21°C° 0 mm 5 mps 753 mmHg 72%
    11:00 +23°C° 0 mm 5 mps 753 mmHg 66%
    12:00 +23°C° 0 mm 5 mps 753 mmHg 64%
    13:00 +25°C° 0 mm 5 mps 753 mmHg 61%
    14:00 +26°C° 0 mm 5 mps 753 mmHg 58%
    15:00 +25°C° 0 mm 5 mps 752 mmHg 59%
    16:00 +25°C° 0 mm 5 mps 752 mmHg 60%
    17:00 +25°C° 0 mm 5 mps 752 mmHg 61%
    18:00 +22°C° 0 mm 5 mps 752 mmHg 64%
    19:00 +21°C° 0 mm 4 mps 752 mmHg 66%
    20:00 +19°C° 0 mm 4 mps 752 mmHg 69%
    21:00 +19°C° 0 mm 4 mps 752 mmHg 68%
    22:00 +18°C° 0 mm 4 mps 752 mmHg 67%
    23:00 +18°C° 0 mm 4 mps 752 mmHg 66%

    24 August, Saturday

    Time Temperature Precipitation Wind Pressure Humidity
    00:00 +17°C° 0 mm 4 mps 752 mmHg 68%
    01:00 +17°C° 0 mm 4 mps 752 mmHg 69%
    02:00 +15°C° 0 mm 4 mps 752 mmHg 71%
    03:00 +15°C° 0 mm 4 mps 752 mmHg 73%
    04:00 +15°C° 0 mm 4 mps 751 mmHg 75%
    05:00 +14°C° 0 mm 4 mps 751 mmHg 77%
    06:00 +15°C° 0 mm 4 mps 751 mmHg 76%
    07:00 +16°C° 0 mm 5 mps 751 mmHg 75%
    08:00 +17°C° 0 mm 5 mps 751 mmHg 74%
    09:00 +20°C° 0 mm 5 mps 751 mmHg 71%
    10:00 +22°C° 0 mm 5 mps 751 mmHg 67%
    11:00 +25°C° 0 mm 5 mps 751 mmHg 64%
    12:00 +26°C° 0 mm 5 mps 750 mmHg 62%
    13:00 +26°C° 0 mm 4 mps 750 mmHg 61%
    14:00 +27°C° 0 mm 4 mps 750 mmHg 60%
    15:00 +27°C° 0 mm 4 mps 750 mmHg 62%
    16:00 +27°C° 0 mm 4 mps 749 mmHg 64%
    17:00 +27°C° 0 mm 3 mps 749 mmHg 66%
    18:00 +25°C° 0 mm 3 mps 749 mmHg 69%
    19:00 +24°C° 0 mm 3 mps 749 mmHg 72%
    20:00 +21°C° 0 mm 3 mps 749 mmHg 75%
    21:00 +20°C° 0 mm 3 mps 749 mmHg 74%
    22:00 +19°C° 0 mm 3 mps 749 mmHg 74%
    23:00 +18°C° 0 mm 2 mps 749 mmHg 73%

    25 August, Sunday

    Time Temperature Precipitation Wind Pressure Humidity
    00:00 +18°C° 0 mm 2 mps 748 mmHg 74%
    01:00 +18°C° 0 mm 2 mps 748 mmHg 75%
    02:00 +17°C° 0 mm 2 mps 748 mmHg 76%
    03:00 +17°C° 0 mm 2 mps 748 mmHg 78%
    04:00 +17°C° 0 mm 2 mps 748 mmHg 80%
    05:00 +16°C° 0 mm 2 mps 748 mmHg 82%
    06:00 +17°C° 0 mm 2 mps 748 mmHg 81%
    07:00 +18°C° 0 mm 2 mps 748 mmHg 80%
    08:00 +19°C° 0 mm 2 mps 748 mmHg 78%
    09:00 +21°C° 0 mm 2 mps 748 mmHg 73%
    10:00 +24°C° 0 mm 2 mps 749 mmHg 68%
    11:00 +26°C° 0 mm 2 mps 749 mmHg 63%
    12:00 +27°C° 0 mm 2 mps 749 mmHg 61%
    13:00 +28°C° 0 mm 2 mps 748 mmHg 58%
    14:00 +29°C° 0 mm 2 mps 748 mmHg 56%
    15:00 +29°C° 0 mm 2 mps 748 mmHg 58%
    16:00 +29°C° 0 mm 2 mps 748 mmHg 60%
    17:00 +29°C° 0 mm 2 mps 748 mmHg 62%
    18:00 +27°C° 0 mm 2 mps 748 mmHg 68%
    19:00 +25°C° 0 mm 2 mps 748 mmHg 73%
    20:00 +22°C° 0 mm 3 mps 748 mmHg 79%
    21:00 +23°C° 0 mm 2 mps 748 mmHg 81%
    22:00 +21°C° 0 mm 2 mps 749 mmHg 82%
    23:00 +20°C° 0 mm 2 mps 749 mmHg 83%
    Show more